Flag for Venezuela Weather past 2 weeks in Caracas, Venezuela

Now
75 °F

Passing clouds.


Feels Like: 76 °F
Forecast: 65 / 76 °F
Wind: No wind

Location: Caracas / Maiquetia Aerop. Intl. Simon Bolivar


UV Index: 10 (Very high)

Visibility: N/A


Pressure: 29.92 "Hg

Humidity: 78%

Dew point: 68 °F

Location of CaracasLocation

Historic Weather in Caracas

°F

Caracas temperature yesterday

Maximum temperature yesterday: 82 °F (at 9:30 AM)
Minimum temperature yesterday: 73 °F (at 3:30 AM)
Average temperature yesterday: 78 °F

Past Weeks' High & Low Weather Summary

 TemperatureHumidityPressure
High90 °F (Apr 3, 12:30 PM)84% (Apr 17, 4:30 PM)30.01 "Hg (Apr 17, 4:30 PM)
Low72 °F (Apr 12, 3:30 AM)20% (Apr 12, 10:30 AM)29.80 "Hg (Apr 15, 4:30 PM)
Average79 °F72%29.90 "Hg
* Reported Apr 2 11:30 PM — Apr 17 11:30 PM, Caracas, Weather by CustomWeather, © 2014

Note: Actual official high and low records may vary slightly from our data, if they occured in-between our weather recording intervals... More about our weather records

Advertising

Historic Weather Conditions — Data for Previous 24 hours

 ConditionsComfort  
Time TempWeatherWind HumidityBarometerVisibility
11:30 PM
Apr 17
77 °FPassing clouds.2 mph74%29.95 "HgN/A
10:30 PM77 °FPassing clouds.2 mph79%29.95 "HgN/A
9:30 PM77 °FPassing clouds.2 mph79%29.89 "HgN/A
8:30 PM77 °FPassing clouds.3 mph79%29.89 "HgN/A
7:30 PM77 °FPassing clouds.3 mph83%29.89 "HgN/A
6:30 PM79 °FPassing clouds.3 mph79%29.89 "HgN/A
5:30 PM79 °FPartly sunny.3 mph79%29.86 "HgN/A
4:30 PM79 °FScattered clouds.3 mph84%29.89 "HgN/A
3:30 PM82 °FScattered clouds.5 mph66%29.89 "HgN/A
2:30 PM82 °FScattered clouds.5 mph74%29.95 "HgN/A
1:30 PM82 °FPartly sunny.5 mph70%29.92 "HgN/A
12:30 PM82 °FScattered clouds.5 mph74%29.95 "HgN/A
11:30 AM82 °FScattered clouds.5 mph70%29.95 "HgN/A
10:30 AM82 °FPassing clouds.5 mph74%29.95 "HgN/A
9:30 AM82 °FPassing clouds.3 mph70%29.92 "HgN/A
8:30 AM79 °FPassing clouds.2 mph70%29.92 "HgN/A
7:30 AM79 °FPassing clouds.No wind65%29.92 "HgN/A
6:30 AM73 °FPassing clouds.No wind78%29.86 "HgN/A
5:30 AM73 °FPassing clouds.No wind78%29.83 "HgN/A
4:30 AM73 °FPassing clouds.No wind83%29.83 "HgN/A
3:30 AM73 °FPassing clouds.No wind83%29.83 "HgN/A
2:30 AM75 °FPassing clouds.No wind78%29.86 "HgN/A
1:30 AM75 °FPassing clouds.No wind78%29.86 "HgN/A
Weather by CustomWeather, © 2014

See weather overview